RH
96 96 93 96 96 94 93 95 96 94 94 89 83 73 70 84 75 91 96 72 66 88 91 88 90 86 91 87 95 100 96 100 100 100 99 88 98 84 90 82 91 95 98 98 99 100 94 45 42 64 69 50 48 52
93 99 99 100 100 94 92 90 94 98 96 95 86 80 78 91 88 83 97 83 67 81 91 94 88 89 91 90 93 98 83 94 95 98 97 96 99 95 91 93 73 89 80 89 90 88 65 82 81 69 62 62 70 82
90 94 99 100 96 98 94 97 89 98 99 96 94 91 84 92 96 87 97 96 80 99 100 99 99 87 87 84 88 98 98 91 97 99 98 99 100 94 99 97 83 84 85 94 90 92 79 91 78 64 72 86 86 83
98 98 99 99 98 98 99 98 95 96 99 96 96 94 94 94 94 87 98 97 85 95 100 96 99 94 91 84 81 87 96 94 92 96 99 100 100 94 98 96 95 89 94 96 99 97 96 93 73 84 88 82 79 73
96 99 98 97 99 100 100 99 97 100 100 99 96 95 95 92 88 86 100 94 89 87 97 99 99 94 93 88 96 92 92 96 97 99 100 99 96 98 99 99 99 91 95 99 94 82 93 96 94 79 82 82 74 73
98 100 99 89 87 93 100 100 100 99 100 100 97 94 96 88 81 98 100 99 93 78 92 98 90 100 90 89 99 95 99 99 98 99 98 97 93 99 99 99 78 80 83 77 82 80 88 98 81 69 72 74 67 63
86 97 94 87 86 100 100 100 97 95 99 95 91 90 90 83 93 95 94 92 95 75 96 98 99 99 95 95 97 98 96 98 96 99 99 99 99 99 99 96 72 70 74 80 88 86 96 96 88 70 74 61 55 60
90 88 91 87 84 91 99 100 100 92 93 95 89 87 84 89 96 99 88 93 87 83 96 98 98 98 98 99 99 98 100 99 99 99 100 99 98 99 99 78 68 64 80 86 82 70 74 72 72 78 69 63 64 62
87 91 94 98 99 92 97 100 96 94 89 84 81 86 98 99 100 99 82 92 73 89 99 96 96 97 99 99 99 99 99 99 98 99 98 97 98 98 80 76 76 82 85 84 83 78 71 72 75 80 73 72 70 67
99 98 94 100 100 99 99 100 98 97 90 88 97 100 100 100 91 98 99 99 100 100 90 96 91 97 92 98 99 98 99 98 99 95 98 98 92 73 70 69 72 77 76 78 87 84 77 70 71 77 71 69 68 71
99 100 100 100 100 100 99 100 100 100 100 99 100 100 100 98 85 99 99 99 100 99 98 95 90 96 94 96 98 97 98 97 99 95 97 96 98 88 66 73 75 72 69 66 62 65 66 60 62 67 75 69 66 64
100 100 98 99 89 99 100 100 100 99 96 93 95 98 98 96 100 99 98 99 98 93 98 96 95 97 99 92 96 98 97 99 95 89 98 97 86 77 77 76 80 72 69 73 68 70 69 60 61 69 74 71 56 51
96 90 95 98 93 98 100 100 100 94 94 84 90 100 100 99 98 97 97 98 98 98 98 97 98 93 99 95 94 90 98 97 94 97 91 85 90 89 86 85 82 74 67 68 70 68 68 68 64 67 76 69 58 53
97 96 100 88 99 100 100 98 95 92 81 99 98 97 95 98 95 95 92 93 92 93 90 77 97 94 98 98 95 98 89 97 97 96 86 92 86 90 86 81 74 70 63 64 67 69 68 62 61 61 60 69 52 60
99 97 99 100 100 99 92 94 87 78 92 98 92 97 100 92 94 94 94 96 95 79 76 95 97 94 100 97 97 88 99 96 92 87 86 83 86 90 84 75 69 66 69 64 61 66 72 66 67 67 68 61 50 60
100 100 98 99 100 100 92 86 72 82 93 90 85 95 98 98 99 98 96 96 82 76 84 90 95 99 97 92 97 91 85 88 83 91 97 90 88 84 78 70 66 63 60 61 59 66 67 64 68 74 58 54 56 60
96 97 99 100 97 87 77 79 83 98 98 96 100 97 95 95 96 97 95 95 70 72 94 97 99 90 94 97 96 91 91 85 91 100 94 85 84 81 74 71 72 66 64 59 60 60 61 60 62 65 69 66 64 69
98 100 98 99 94 82 84 95 98 98 99 99 94 99 99 97 97 98 97 79 78 91 89 92 90 99 97 87 90 88 97 100 98 94 90 83 78 75 70 73 69 66 62 59 58 60 66 69 60 65 66 65 74 78
100 100 98 94 85 92 99 99 95 97 99 94 99 94 94 97 90 91 88 75 89 88 89 88 84 89 86 84 85 96 97 96 96 92 86 81 77 76 75 72 70 66 61 61 60 64 65 62 62 62 68 72 71 78
98 96 92 80 69 94 100 99 98 97 99 100 99 99 99 99 97 94 86 96 97 98 97 97 91 92 96 97 97 94 91 88 88 94 94 88 78 74 73 70 69 64 64 65 65 61 66 68 62 60 63 67 70 83
97 99 92 83 80 84 98 99 99 98 99 98 99 98 99 99 98 98 99 99 99 99 99 98 99 98 96 96 91 88 88 85 85 83 87 91 78 73 69 69 67 68 70 72 72 73 68 70 63 62 65 65 65 76
98 94 91 89 95 86 95 90 97 99 98 99 99 99 98 98 99 99 100 99 99 99 99 98 97 95 95 94 92 85 83 83 80 79 78 76 79 77 76 74 71 78 76 74 68 73 67 59 60 65 67 68 82 84
78 74 78 95 98 98 100 99 99 100 97 98 99 98 98 98 99 98 98 99 99 98 97 95 94 90 92 86 84 83 79 76 80 80 76 76 73 74 76 72 71 76 83 74 58 55 58 57 61 66 70 77 91 82
62 77 89 89 87 98 98 99 99 98 98 98 97 97 97 98 98 92 92 98 99 95 94 94 89 92 85 81 85 86 83 78 77 79 74 72 79 81 74 72 64 58 57 58 56 55 56 58 64 71 76 78 93 90
65 75 83 93 89 85 95 97 94 83 97 90 86 94 90 80 95 96 90 99 97 98 97 92 92 88 92 96 93 88 78 75 77 81 72 69 79 80 78 69 61 52 48 55 67 60 60 63 68 74 79 81 84 91
80 79 71 87 94 81 85 96 96 93 90 93 90 90 86 86 91 93 87 91 96 98 96 92 91 92 92 85 93 92 85 72 72 79 79 64 66 72 82 86 95 80 57 44 49 60 65 68 73 77 84 86 82 86
83 82 85 84 82 80 90 86 77 84 91 90 94 93 86 93 98 88 95 98 97 96 84 80 78 84 88 89 84 77 73 67 63 63 63 60 53 48 46 65 76 49 53 54 52 52 59 68 75 80 81 83 83 82
89 86 93 93 94 82 94 94 94 92 94 92 85 99 97 90 96 97 99 99 93 82 81 76 70 73 79 79 76 73 69 61 60 64 64 66 64 57 48 45 46 46 48 49 53 56 58 61 67 74 80 83 82 82
97 86 75 91 89 95 97 98 95 94 96 87 89 89 90 94 97 98 100 98 87 84 91 93 94 78 80 78 75 66 63 64 73 81 84 93 92 67 60 54 48 45 50 56 59 58 58 62 67 75 78 83 84 88
95 76 88 95 94 97 98 97 97 97 94 97 93 94 92 97 97 99 98 91 89 91 86 85 81 74 86 83 90 81 71 61 52 56 81 84 73 52 52 51 47 42 43 49 54 62 74 80 81 85 90 92 93 92
86 89 94 95 97 97 97 96 87 89 96 90 94 96 97 97 97 98 99 98 92 89 89 90 84 75 74 80 77 83 81 57 50 42 40 39 41 43 45 47 47 47 48 52 58 67 73 76 81 85 90 92 86 78
94 96 93 96 97 97 96 97 98 97 97 95 97 95 93 93 97 97 97 98 94 94 91 81 84 80 67 62 58 54 52 49 49 45 44 44 41 46 52 59 63 62 60 64 71 74 69 66 70 74 74 74 79 89
93 95 97 97 97 98 92 93 94 96 94 96 96 98 100 98 98 97 96 98 98 95 84 75 69 66 63 62 64 65 59 54 52 51 48 38 34 37 53 63 67 70 71 73 66 63 69 78 83 88 92 93 93 91
Wind_Speed
50 50 51 50 50 49 49 48 48 47 48 48 47 45 44 43 44 44 17 35 20 3 2 1 2 1 3 3 4 4 4 0 0 4 3 4 3 5 3 4 6 7 7 4 3 4 9 4 2 5 1 1 2 3
49 48 50 50 50 50 50 51 51 50 50 50 50 46 45 45 45 45 12 37 27 3 2 3 3 3 2 1 4 2 4 5 5 2 2 0 1 2 4 4 1 3 6 4 8 6 3 2 3 2 2 3 3 5
48 49 46 49 48 49 51 52 53 52 51 50 50 49 47 46 46 47 23 32 23 4 2 2 3 4 2 4 4 4 1 1 1 0 2 1 4 3 3 5 4 3 2 1 2 3 4 3 1 3 4 9 10 9
46 48 46 47 49 49 52 54 55 54 52 51 50 49 48 47 47 47 26 32 30 3 3 2 1 3 6 7 3 7 5 3 3 0 1 1 2 2 3 3 3 4 5 3 4 3 3 3 5 9 11 11 11 10
45 47 47 47 47 49 52 55 55 55 52 50 51 49 48 48 47 44 26 34 38 7 4 3 2 4 4 6 5 4 4 3 2 1 2 3 1 2 2 1 3 4 7 5 7 8 3 5 10 11 11 10 10 11
42 43 44 45 43 45 51 54 56 52 52 50 50 48 48 47 46 37 3 34 43 35 4 3 0 2 3 5 7 7 5 3 2 2 2 0 2 2 3 3 4 11 6 5 4 7 8 11 9 10 11 10 11 10
43 44 44 43 39 46 53 54 54 53 51 49 47 47 47 45 43 12 5 11 43 34 3 3 3 3 7 5 2 2 4 1 3 2 2 2 3 3 2 6 4 9 10 8 14 14 7 7 6 11 14 14 15 13
45 45 45 44 43 42 47 51 51 51 50 48 47 46 45 43 37 15 6 33 50 15 3 4 3 3 6 2 2 1 2 2 2 2 1 2 1 2 5 9 4 3 10 11 9 4 8 13 14 11 16 15 9 7
47 48 45 45 45 47 47 48 51 50 49 48 44 43 38 25 5 11 21 41 30 6 5 3 8 5 5 2 2 1 1 2 2 3 4 5 4 7 9 7 11 12 8 12 10 13 14 14 12 11 10 8 8 6
47 49 47 46 46 47 47 49 50 50 49 46 41 8 3 16 36 33 14 7 2 2 2 3 3 5 5 3 2 3 3 3 4 5 4 5 6 7 7 8 13 14 16 18 17 11 11 11 12 11 9 9 9 8
44 48 47 45 46 49 48 49 52 51 50 20 3 3 16 50 11 3 4 5 4 5 4 3 3 7 2 4 3 2 2 3 3 4 6 3 4 5 12 10 14 14 17 14 7 11 12 14 14 11 10 13 12 12
49 47 44 43 43 47 51 51 52 39 16 14 17 22 14 4 3 6 5 4 3 6 4 7 5 4 3 3 3 4 4 3 6 6 3 3 5 5 10 15 17 16 15 10 16 14 17 18 18 16 16 14 14 10
49 44 42 46 46 46 55 54 42 41 49 31 6 3 3 2 5 7 7 4 6 5 5 6 6 4 3 2 3 4 6 5 4 3 4 6 2 7 11 13 14 13 17 18 15 19 20 19 18 18 15 17 12 9
44 44 44 45 47 50 52 49 51 37 15 3 4 5 3 4 4 4 5 6 4 7 12 12 6 4 3 5 3 6 5 3 4 4 7 3 11 12 11 11 14 15 16 15 14 20 20 19 17 18 18 17 12 10
44 44 44 43 53 52 52 52 38 20 4 4 4 4 4 3 3 3 4 6 3 9 12 6 4 3 3 4 3 3 5 5 6 5 4 4 9 14 14 14 14 14 13 13 19 18 18 21 20 18 17 14 10 11
40 48 38 58 57 54 47 30 21 4 3 3 3 3 3 4 3 3 5 8 7 11 5 3 4 4 4 4 6 7 6 7 4 4 1 8 14 15 16 15 14 16 17 18 19 20 20 22 19 19 17 12 12 11
26 20 54 52 49 42 33 13 7 5 3 3 2 2 2 3 4 4 4 4 12 12 5 4 7 9 3 4 5 5 5 4 3 2 4 9 15 16 15 14 16 20 19 19 20 20 19 19 22 19 12 13 12 8
41 47 50 49 39 30 11 8 3 3 4 2 2 2 1 2 4 3 4 11 7 3 4 4 4 4 6 8 4 4 2 1 2 4 6 10 13 14 19 16 21 22 21 20 21 20 20 20 17 13 15 16 11 9
39 42 41 30 21 9 3 2 2 3 2 3 2 2 2 2 1 5 5 10 2 4 5 3 4 4 4 4 3 3 5 4 5 6 7 10 17 18 20 22 23 20 22 21 21 18 18 19 18 20 18 16 13 11
34 32 26 20 12 3 4 2 2 3 3 2 2 2 2 2 2 3 9 3 2 2 1 2 4 2 2 1 1 2 6 8 10 10 8 6 15 21 21 22 18 22 20 19 18 20 19 16 18 18 17 14 13 12
26 20 19 12 5 6 3 2 2 2 3 2 2 2 2 2 4 3 3 1 2 3 3 2 1 1 2 1 4 7 9 9 8 6 12 10 13 18 18 18 22 20 18 16 14 14 18 17 21 18 15 12 10 10
7 14 6 8 3 3 3 3 3 2 2 3 2 2 3 2 2 2 3 1 2 2 2 2 2 3 4 4 6 12 15 15 16 18 20 21 8 8 10 18 19 12 15 16 18 17 19 20 20 16 13 11 11 11
10 6 5 4 4 3 3 2 2 1 3 3 2 3 2 2 2 2 2 1 2 0 1 2 5 9 8 12 15 15 18 20 9 10 15 14 15 17 18 17 20 18 12 18 24 23 22 20 17 15 13 12 13 12
5 3 3 3 2 3 2 2 1 2 2 2 2 4 3 2 2 1 2 2 2 2 3 8 7 7 8 8 6 6 11 18 17 15 17 19 7 11 17 18 22 23 23 26 22 21 20 19 17 16 15 15 15 13
4 2 3 2 1 4 3 3 2 2 2 2 4 2 3 2 2 1 2 2 3 3 5 5 5 5 6 5 5 8 15 19 11 9 13 17 19 17 14 17 19 20 21 24 22 21 20 19 19 17 16 16 15 14
4 2 2 2 0 3 4 4 4 4 3 2 2 2 2 2 2 3 2 3 3 3 6 7 6 6 4 3 6 4 10 19 20 9 12 22 22 19 10 8 3 12 21 22 22 21 21 21 20 18 18 16 14 13
3 0 1 2 1 3 3 2 2 3 3 4 3 3 3 3 4 2 1 1 3 4 14 15 12 4 7 8 16 16 18 18 14 13 15 19 21 26 28 21 13 19 22 21 18 18 22 23 23 21 19 17 16 14
2 2 4 2 3 3 3 3 2 2 3 2 3 3 4 5 2 2 2 3 17 23 19 15 14 20 19 22 25 24 20 18 19 22 20 14 13 15 16 13 7 10 16 17 16 16 16 18 19 19 19 18 15 13
2 1 3 5 4 4 4 2 1 2 2 2 4 3 3 2 2 3 4 12 22 23 13 11 15 22 24 23 21 22 26 28 18 7 5 3 0 9 14 13 10 10 12 14 14 11 11 11 12 14 14 13 11 11
1 1 4 3 4 4 3 3 1 2 3 2 3 3 3 2 9 12 11 12 10 8 14 19 25 23 14 15 14 14 18 18 18 15 6 5 8 14 19 17 16 14 14 16 16 14 13 12 12 12 12 11 11 11
2 2 3 3 3 1 1 3 6 5 2 4 4 4 3 2 5 21 20 11 16 20 20 14 14 19 22 17 14 8 3 11 10 9 8 7 11 14 17 18 17 16 17 17 16 15 13 13 12 12 12 12 12 11
3 2 4 4 3 0 3 3 3 3 4 4 4 3 3 3 4 5 18 9 9 7 7 18 17 12 15 15 15 10 9 17 17 13 8 6 9 14 15 17 16 16 17 16 14 13 12 11 12 12 11 11 11 11
3 3 4 4 3 3 2 4 4 3 5 4 4 3 3 3 2 2 12 13 7 9 14 14 15 16 18 17 12 8 10 13 14 11 8 8 10 14 17 17 17 16 15 14 13 13 12 12 12 11 11 11 11 11
Wind_Direction
224 221 220 220 218 215 216 214 212 210 209 210 213 216 218 217 214 204 201 193 188 145 241 184 353 296 39 120 140 181 100 301 4 181 163 216 208 216 228 199 180 166 179 187 193 222 272 19 50 172 178 36 80 80
221 218 217 217 216 214 214 212 211 208 206 206 210 214 218 215 213 207 206 191 201 149 189 132 107 88 61 46 130 196 155 165 189 153 234 99 162 193 183 249 248 225 195 185 190 219 101 23 105 2 266 79 53 90
219 218 217 215 214 214 212 211 211 208 204 204 207 211 214 214 210 204 196 177 182 122 48 113 208 203 102 76 80 131 269 108 171 349 203 181 242 139 201 230 219 325 64 195 50 199 204 194 110 48 89 114 96 96
216 216 215 215 214 214 211 208 206 206 205 204 205 208 209 210 208 201 192 182 176 136 142 237 187 194 183 153 108 65 109 79 81 273 203 198 210 179 236 280 207 169 132 194 247 248 153 260 195 129 110 108 110 90
215 212 212 213 213 212 210 206 203 200 202 202 204 205 205 205 205 198 193 185 183 149 154 157 135 186 174 200 192 181 112 98 36 321 182 209 152 208 183 292 226 188 181 194 240 201 147 143 145 138 131 130 126 116
208 204 205 209 213 212 205 195 194 194 197 198 199 201 200 200 200 180 144 187 187 193 108 140 316 71 174 199 168 180 159 114 199 232 218 231 346 202 231 242 239 203 197 208 219 120 117 122 121 127 117 120 110 109
206 203 203 205 205 195 188 188 189 193 193 196 197 197 196 198 186 185 183 175 180 180 104 122 143 167 160 123 89 89 110 171 170 210 214 170 212 205 253 257 232 217 204 129 123 110 94 149 159 136 129 124 117 109
204 201 197 197 197 195 186 187 186 189 191 192 194 194 194 192 185 184 177 173 169 160 132 137 121 145 181 147 127 168 127 149 201 193 116 200 184 220 249 232 233 128 129 142 156 77 134 128 131 133 132 133 130 130
198 193 191 189 188 188 188 184 184 186 188 190 190 185 174 177 144 150 154 167 161 144 155 142 147 170 166 127 116 121 173 179 156 212 206 157 198 220 220 209 170 166 163 143 111 113 133 141 142 143 144 147 142 148
190 181 186 184 184 185 185 183 182 181 182 178 167 153 123 143 134 123 128 178 143 149 102 120 131 136 152 130 153 140 180 213 199 219 145 219 245 231 217 204 177 165 145 138 126 145 149 152 158 161 165 160 156 156
172 174 175 177 179 181 180 175 172 170 162 151 121 135 141 132 116 93 150 169 160 166 152 140 136 128 217 141 146 198 185 197 229 212 185 230 260 229 202 180 165 157 159 171 129 157 164 157 159 157 154 158 156 150
166 167 166 170 174 172 169 171 166 161 143 141 123 125 133 91 127 142 173 151 150 159 138 132 142 129 157 128 121 172 203 176 247 150 209 253 241 196 168 165 162 158 162 140 139 142 142 148 152 152 157 157 154 152
152 157 160 162 166 166 162 159 155 130 119 122 95 118 160 158 141 165 157 148 142 139 154 143 124 126 130 160 133 174 205 225 123 188 227 230 222 175 164 153 150 149 138 124 127 132 136 139 147 154 153 158 154 133
145 150 154 162 161 150 146 143 136 127 114 109 111 149 157 156 187 171 137 131 160 143 149 150 119 138 142 165 153 175 207 162 219 222 234 214 209 181 156 148 140 145 136 140 138 141 144 147 151 152 155 163 149 158
145 148 148 147 144 139 139 138 140 137 105 104 143 149 170 141 76 140 111 106 110 139 139 114 85 115 149 136 190 159 191 228 219 228 220 218 158 153 152 150 144 140 141 145 146 148 146 146 146 151 158 152 165 160
136 142 141 137 135 136 144 141 133 82 66 69 82 82 80 83 115 63 93 118 133 143 118 86 131 133 187 172 172 203 182 217 238 220 224 140 148 151 152 149 147 147 148 147 149 149 146 150 152 153 148 159 165 169
112 131 133 128 130 134 138 98 50 40 73 52 31 52 108 83 129 142 119 137 154 144 159 133 161 199 121 171 197 182 209 217 202 186 156 157 155 152 146 143 140 145 145 148 144 146 146 153 152 142 145 162 162 182
117 123 130 131 123 111 87 46 78 74 75 90 138 197 112 107 116 110 113 152 157 146 135 175 128 165 176 177 215 213 183 72 63 134 142 145 145 145 146 142 145 148 146 147 146 144 150 151 151 159 164 169 172 180
119 119 124 126 129 90 86 65 40 95 90 125 102 74 76 110 76 113 122 163 69 106 109 111 160 181 204 211 198 169 166 160 147 132 132 134 142 142 139 141 142 145 147 147 147 154 158 161 169 172 169 172 183 191
116 117 122 118 114 75 86 82 37 80 114 118 81 77 66 60 87 110 140 107 67 75 72 207 214 199 186 293 212 158 138 137 132 128 130 130 140 138 142 145 146 144 137 138 141 146 148 156 175 172 173 180 186 195
98 104 110 89 63 76 98 122 99 115 114 97 106 89 88 80 118 127 131 121 145 192 192 219 241 325 253 223 122 127 141 147 164 160 154 144 144 137 133 135 137 140 144 147 146 154 163 168 171 172 175 184 196 196
94 88 69 39 63 51 83 27 104 106 89 101 89 80 94 96 134 140 131 161 160 155 169 155 149 145 116 111 114 132 136 122 118 116 120 133 138 138 141 144 143 144 149 154 162 167 173 175 173 175 179 186 192 197
90 71 49 52 73 52 72 44 96 147 116 119 127 114 115 123 129 143 110 162 115 26 110 87 93 108 109 110 111 114 126 126 124 130 131 122 123 129 135 145 151 144 144 167 179 175 173 173 176 179 183 193 200 205
90 78 118 127 113 119 117 115 101 98 100 131 119 118 133 139 147 96 159 145 112 128 120 123 124 120 116 119 117 117 120 125 118 110 129 130 126 129 144 151 165 173 176 174 176 175 174 175 180 185 192 201 207 216
102 347 95 41 6 106 103 124 134 103 116 162 111 117 157 138 105 206 215 164 143 134 132 140 137 138 138 120 108 109 134 137 135 130 137 133 122 120 130 162 172 178 178 170 172 173 175 181 189 194 201 210 216 223
82 298 91 172 154 121 151 133 163 144 126 103 89 99 87 94 132 215 225 175 138 141 164 162 145 126 110 121 133 128 127 143 130 117 140 158 153 154 156 155 140 183 190 191 178 178 183 191 197 202 211 217 224 232
90 280 85 20 24 98 91 67 62 99 126 152 155 119 106 140 203 253 38 196 129 145 157 151 144 126 132 118 115 129 142 150 145 149 160 172 180 182 174 167 178 192 190 192 193 196 197 201 205 211 218 223 228 235
145 51 134 337 68 31 111 71 106 140 171 161 92 77 120 161 164 349 10 27 124 127 124 121 137 139 131 135 138 138 131 134 132 132 134 142 167 181 186 188 173 186 191 195 196 203 213 217 217 219 222 227 234 237
66 69 85 35 47 49 38 48 61 37 30 93 112 108 100 55 349 331 18 116 126 122 108 101 98 126 126 133 141 145 145 144 130 119 127 167 82 176 180 180 168 164 174 179 185 202 215 225 229 230 233 234 240 238
96 76 91 63 52 40 355 341 32 3 24 83 105 99 75 50 7 50 97 115 118 124 134 139 141 134 136 132 130 142 159 167 175 161 159 191 194 177 181 184 179 174 175 179 185 189 200 212 214 211 214 220 223 233
99 92 86 68 81 348 56 76 77 72 55 60 41 78 85 119 52 37 39 75 122 129 123 115 117 145 143 144 149 136 158 180 173 143 129 122 183 184 185 187 187 185 184 185 189 194 199 203 209 213 218 226 237 238
41 79 127 111 124 38 31 50 53 53 29 31 32 44 41 55 53 22 9 40 102 89 110 151 139 147 167 169 168 173 208 184 174 169 159 145 163 175 176 175 174 174 177 181 189 196 204 212 217 223 231 234 239 248
53 44 57 86 55 65 357 81 50 59 32 33 32 46 52 106 79 306 6 44 80 143 146 147 140 137 141 141 139 123 137 159 165 162 157 155 161 164 166 168 170 174 179 185 192 200 207 213 220 229 241 246 254 267